Akron, CO

4:34 AM MDT on May 26, 2018 (GMT -0600)
Akron-Washington County

Weather History for KAKO - October, 2011

Change the Weather History Date:

Thursday, October 20, 2011

  Actual Average Record
Temperature  
Mean Temperature 52 °F 49 °F  
Max Temperature 68 °F 62 °F 87 °F (1947)
Min Temperature 36 °F 35 °F 22 °F (1982)
Degree Days  
Heating Degree Days 13    
Month to date heating degree days 212  
Cooling Degree Days 0    
Month to date cooling degree days 17  
Growing Degree Days 2 (Base 50)    
Moisture  
Dew Point 26 °F    
Average Humidity 42    
Maximum Humidity 64    
Minimum Humidity 19    
Precipitation  
Precipitation 0.00 in 0.04 in 0.66 in (1963)
Month to date precipitation 0.62 0.81  
Year to date precipitation 15.46  
Sea Level Pressure  
Sea Level Pressure 29.98 in    
Wind  
Wind Speed 12 mph (WSW)    
Max Wind Speed 25 mph    
Max Gust Speed 30 mph    
Visibility 10 miles    
Events      
T = Trace of Precipitation, MM = Missing Value Source: NWS Daily Summary

Daily Weather History Graph

Daily Weather History Graph

Search for Another Location

Airport or City:

Astronomy

Oct. 20, 2011 Rise Set
Actual Time 7:08 AM MDT 6:06 PM MDT
Civil Twilight 6:41 AM MDT 6:33 PM MDT
Nautical Twilight 6:09 AM MDT 7:05 PM MDT
Astronomical Twilight 5:38 AM MDT 7:36 PM MDT
Moon No Moon Rise 2:16 PM MDT (10/20)
Length of Visible Light 11h 52m
Length of Day
10h 57m
Last Quarter, 43% of the Moon is Illuminated
Oct 20
Last Quarter
Oct 26
New
Nov 2
First Quarter
Nov 10
Full
Nov 18
Last Quarter

Hourly Weather History & Observations

Time (MDT) Temp. Windchill Dew Point Humidity Pressure Visibility Wind Dir Wind Speed Gust Speed Precip Events Conditions
12:53 AM 39.0 °F 31.0 °F 24.1 °F 55% 29.99 in 10.0 mi South 13.8 mph - N/A   Clear
1:53 AM 37.9 °F 30.9 °F 25.0 °F 60% 29.96 in 10.0 mi South 10.4 mph - N/A   Clear
2:53 AM 37.0 °F 31.0 °F 24.1 °F 59% 29.94 in 10.0 mi SSW 8.1 mph - N/A   Clear
3:53 AM 39.0 °F 31.4 °F 24.1 °F 55% 29.91 in 10.0 mi SSW 12.7 mph - N/A   Clear
4:53 AM 37.9 °F 30.9 °F 25.0 °F 60% 29.91 in 10.0 mi SSW 10.4 mph - N/A   Clear
5:53 AM 37.0 °F 28.9 °F 25.0 °F 62% 29.93 in 10.0 mi SW 12.7 mph - N/A   Clear
6:53 AM 36.0 °F 27.1 °F 25.0 °F 64% 29.93 in 10.0 mi WSW 13.8 mph - N/A   Clear
7:53 AM 37.0 °F 28.1 °F 26.1 °F 65% 29.97 in 10.0 mi West 15.0 mph - N/A   Clear
8:53 AM 39.0 °F 29.9 °F 27.0 °F 62% 29.99 in 10.0 mi West 17.3 mph - N/A   Clear
10:53 AM 57.0 °F - 28.0 °F 33% 29.96 in 10.0 mi NNW 11.5 mph - N/A   Clear
11:53 AM 62.1 °F - 26.1 °F 25% 29.95 in 10.0 mi NNW 15.0 mph - N/A   Clear
12:53 PM 64.0 °F - 28.0 °F 26% 29.94 in 10.0 mi NW 13.8 mph - N/A   Clear
2:53 PM 68.0 °F - 24.1 °F 19% 29.93 in 10.0 mi North 19.6 mph 25.3 mph N/A   Clear
3:53 PM 66.9 °F - 24.1 °F 20% 29.94 in 10.0 mi North 15.0 mph - N/A   Clear
4:53 PM 64.9 °F - 23.0 °F 20% 29.96 in 10.0 mi North 13.8 mph - N/A   Clear
6:53 PM 54.0 °F - 25.0 °F 33% 30.04 in 10.0 mi Calm Calm - N/A   Clear
7:53 PM 55.9 °F - 24.1 °F 29% 30.04 in 10.0 mi ENE 5.8 mph - N/A   Clear
8:53 PM 51.1 °F - 25.0 °F 36% 30.06 in 10.0 mi ESE 3.5 mph - N/A   Clear
9:53 PM 45.0 °F 41.2 °F 28.9 °F 53% 30.08 in 10.0 mi South 6.9 mph - N/A   Clear
10:53 PM 46.9 °F - 28.9 °F 50% 30.04 in 10.0 mi SSW 8.1 mph - N/A   Clear
11:53 PM 45.0 °F 39.3 °F 28.9 °F 53% 30.04 in 10.0 mi SSW 11.5 mph - N/A   Clear